KD2PWM Weather Reports


time (UTC)temp
C
wind
direction
speed
KPH
gust
KPH
rain 1hr
cm
rain 24hr
cm
rain mn
cm
humidity
%
barometer
mb
20260510130038 13 182 1.6 9.7 0.00 0.79 0.00 86 1012.2
20260510124539 13 182 4.8 11.3 0.00 0.97 0.00 85 1012.0
20260510123046 13 0 3.2 11.3 0.00 0.97 0.00 86 1011.9
20260510121543 12 182 4.8 11.3 0.00 0.97 0.00 88 1011.8
20260510120044 12 173 3.2 9.7 0.00 0.97 0.00 90 1011.8
20260510114547 11 189 4.8 12.9 0.00 0.97 0.00 90 1011.6
20260510113038 11 176 3.2 14.5 0.00 0.97 0.00 90 1011.5
20260510111539 11 167 4.8 9.7 0.00 0.97 0.00 91 1011.6
20260510110042 11 196 1.6 11.3 0.00 0.97 0.00 91 1011.7
20260510104547 11 173 3.2 11.3 0.00 0.97 0.00 91 1011.5
20260510103044 11 169 1.6 17.7 0.00 0.97 0.00 91 1011.2
20260510101538 11 0 4.8 14.5 0.00 0.97 0.00 91 1010.9
20260510100044 11 188 0.0 11.3 0.00 0.97 0.00 92 1010.6
20260510094546 11 176 3.2 12.9 0.00 0.97 0.00 92 1010.6
20260510093037 10 168 3.2 9.7 0.00 0.97 0.00 92 1010.4
20260510091545 10 167 1.6 6.4 0.00 0.97 0.00 92 1010.2
20260510090045 10 0 0.0 3.2 0.00 0.97 0.00 92 1009.9
20260510084539 10 0 1.6 8.0 0.00 0.97 0.00 91 1010.2
20260510083051 11 175 4.8 9.7 0.00 0.97 0.00 91 1010.4
20260510081541 11 178 1.6 8.0 0.00 0.97 0.00 91 1010.2
20260510080038 11 148 1.6 4.8 0.00 0.97 0.00 91 1010.1
20260510074547 11 133 1.6 9.7 0.00 0.97 0.00 91 1010.3
20260510073050 11 181 1.6 6.4 0.00 0.97 0.00 90 1010.7
20260510071540 11 153 0.0 6.4 0.00 0.97 0.00 90 1010.8
20260510070040 11 0 1.6 8.0 0.00 0.97 0.00 90 1011.1
20260510064540 11 192 6.4 12.9 0.00 0.97 0.00 91 1011.1
20260510063038 11 0 0.0 8.0 0.00 0.97 0.00 90 1011.0
20260510061537 11 184 1.6 6.4 0.00 0.97 0.00 90 1010.7
20260510060044 11 190 0.0 6.4 0.00 0.97 0.00 90 1010.2
20260510054541 11 182 4.8 12.9 0.00 0.97 0.00 91 1010.2
20260510053038 11 150 1.6 12.9 0.00 0.97 0.00 91 1010.2
20260510051539 10 180 0.0 8.0 0.00 0.97 0.00 91 1010.4
20260510050039 10 201 0.0 3.2 0.00 0.97 0.00 91 1010.4
20260510044536 10 201 1.6 4.8 0.00 0.97 0.00 90 1010.4
20260510043043 10 0 0.0 1.6 0.00 0.97 0.00 90 1010.5
20260510041543 11 0 0.0 1.6 0.00 0.97 0.00 90 1010.3
20260510040039 11 0 0.0 4.8 0.00 0.97 0.00 90 1010.5
20260510034538 11 0 0.0 4.8 0.00 0.97 0.97 90 1010.4
20260510033038 11 0 0.0 4.8 0.00 0.97 0.97 89 1010.2
20260510031537 11 109 0.0 3.2 0.00 0.97 0.97 89 1010.0
20260510030052 11 0 0.0 3.2 0.00 0.97 0.97 89 1010.2
20260510024542 11 96 0.0 3.2 0.00 0.97 0.97 89 1010.5
20260510023037 11 0 0.0 1.6 0.00 0.97 0.97 89 1010.5
20260510021537 11 0 0.0 4.8 0.00 0.97 0.97 89 1010.4
20260510020037 11 86 0.0 3.2 0.00 0.97 0.97 90 1010.5
20260510014541 11 80 0.0 3.2 0.00 0.97 0.97 90 1010.3
20260510013049 11 0 0.0 3.2 0.00 0.97 0.97 90 1010.4
20260510011545 11 79 0.0 6.4 0.00 0.97 0.97 91 1010.4
20260510010038 11 0 0.0 1.6 0.00 0.97 0.97 91 1010.4
20260510004537 11 0 0.0 1.6 0.00 0.97 0.97 91 1010.2
20260510003041 11 0 0.0 0.0 0.00 0.97 0.97 90 1010.2
20260510001543 11 0 0.0 1.6 0.00 0.97 0.97 89 1009.7
20260510000045 11 0 0.0 1.6 0.00 0.97 0.97 89 1009.7
20260509234542 12 167 0.0 6.4 0.00 0.97 0.97 88 1009.5
20260509233038 12 0 0.0 6.4 0.00 0.97 0.97 88 1009.1
20260509231543 12 0 0.0 9.7 0.00 0.97 0.97 88 1008.9
20260509230037 12 175 3.2 9.7 0.00 0.97 0.97 89 1008.9
20260509224544 12 0 1.6 8.0 0.00 0.97 0.97 89 1009.2
20260509223042 12 174 0.0 9.7 0.00 0.97 0.97 90 1009.3
20260509221542 12 183 3.2 8.0 0.00 0.97 0.97 90 1009.1
20260509220040 12 188 3.2 8.0 0.00 0.97 0.97 91 1009.1
20260509214537 12 161 4.8 9.7 0.00 0.97 0.97 92 1009.4
20260509213038 12 142 3.2 14.5 0.00 0.97 0.97 92 1009.5
20260509211537 11 132 1.6 12.9 0.00 0.97 0.97 93 1009.5
20260509210058 11 0 4.8 14.5 0.00 0.97 0.97 94 1009.5
20260509204543 11 182 3.2 16.1 0.00 0.97 0.97 94 1009.8
20260509203041 11 0 1.6 8.0 0.00 0.97 0.97 95 1009.9
20260509201538 11 184 0.0 8.0 0.00 0.97 0.97 95 1010.0
20260509200037 11 85 0.0 11.3 0.05 0.97 0.97 95 1010.3
20260509194537 10 168 1.6 11.3 0.08 0.97 0.97 94 1010.6
20260509193045 10 0 3.2 9.7 0.10 0.97 0.97 94 1010.7
20260509191541 10 221 0.0 4.8 0.13 0.97 0.97 94 1010.6
20260509190038 10 195 0.0 4.8 0.10 0.91 0.91 95 1010.9
20260509184550 10 73 0.0 6.4 0.08 0.89 0.89 94 1011.1
20260509183038 10 0 0.0 6.4 0.08 0.86 0.86 94 1011.0
20260509181550 10 163 1.6 8.0 0.08 0.84 0.84 94 1010.9
20260509180045 10 187 1.6 6.4 0.05 0.81 0.81 94 1011.0
20260509174539 9 0 1.6 6.4 0.08 0.81 0.81 94 1011.1
20260509173042 9 0 1.6 6.4 0.05 0.79 0.79 94 1011.2
20260509171538 8 192 0.0 6.4 0.05 0.76 0.76 94 1011.5
20260509170046 8 0 0.0 6.4 0.08 0.76 0.76 94 1011.4
20260509164545 8 123 0.0 8.0 0.08 0.74 0.74 94 1011.5
20260509163043 8 0 0.0 3.2 0.10 0.74 0.74 94 1011.8
20260509161538 8 0 1.6 6.4 0.10 0.71 0.71 94 1012.1
20260509160039 8 128 0.0 4.8 0.10 0.69 0.69 94 1012.4
20260509154543 8 0 0.0 4.8 0.15 0.66 0.66 94 1012.5
20260509153059 8 193 0.0 1.6 0.18 0.64 0.64 94 1012.9
20260509151549 8 0 0.0 3.2 0.23 0.61 0.61 94 1013.1
20260509150047 7 193 1.6 4.8 0.25 0.58 0.58 93 1013.2
20260509144538 7 0 1.6 6.4 0.23 0.51 0.51 93 1013.0
20260509143040 7 0 0.0 1.6 0.25 0.46 0.46 93 1013.0
20260509141538 7 0 0.0 0.0 0.20 0.38 0.38 93 1013.0
20260509140051 7 193 0.0 1.6 0.15 0.33 0.33 93 1012.9
20260509134545 7 0 0.0 3.2 0.13 0.28 0.28 92 1012.9
20260509133043 7 0 0.0 1.6 0.08 0.20 0.20 92 1012.7
20260509131546 7 0 0.0 0.0 0.13 0.18 0.18 91 1012.6